Regional Weather Roundup
Issued by NWS Northern Indiana

Home | Current Version | Previous Version | Text Only | Print | Product List | Glossary On
Versions: 1 2 3 4 5 6 7 8 9 10 11 12 13 14 15 16 17 18 19 20 21 22 23 24 25 26 27 28 29 30 31 32 33 34 35 36 37 38 39 40 41 42 43 44 45 46 47 48 49 50
408
ASUS43 KIWX 142200
RWRIWX

KIWX WEATHER ROUNDUP
NATIONAL WEATHER SERVICE NORTHERN INDIANA
500 PM EST SUN FEB 14 2016

NOTE: "FAIR" INDICATES FEW OR NO CLOUDS BELOW 12,000 FEET WITH NO
SIGNIFICANT WEATHER AND/OR OBSTRUCTIONS TO VISIBILITY.

* THESE STATIONS ARE NOT UNDER NWS QUALITY CONTROL. THEY ALSO MAY NOT
  REPORT WEATHER SUCH AS PRECIPITATION OR FOG.

INZ001>027-142300-
NORTHERN INDIANA

CITY           SKY/WX    TMP DP  RH WIND       PRES   REMARKS
GARY*          LGT SNOW  19  10  68 E14G28    30.14F WCI   6
SOUTH BEND     LGT SNOW  15  10  80 E20G25    30.17F WCI  -2
GOSHEN         LGT SNOW  16  10  77 SE13      30.18F WCI   2
ANGOLA*        CLOUDY    16   7  67 SE9       30.20F WCI   4
FORT WAYNE     LGT SNOW  17  11  77 E15       30.22S VSB 1   WCI   2

$$
INZ028>050-142300-
CENTRAL INDIANA

CITY           SKY/WX    TMP DP  RH WIND       PRES   REMARKS
LAFAYETTE      CLOUDY    19  14  81 SE15      30.12F HAZE    WCI   5
KOKOMO*        CLOUDY    18  10  73 SE16G25   30.15F WCI   3
MUNCIE*        SNOW      17  11  77 SE15      30.17R VSB 1/2 WCI   2
INDIANAPOLIS   SNOW      18  14  84 E17       30.11F VSB 1/2 WCI   3

$$
MIZ043>046-050>051-056>058-064>065-071>073-077>080-142300-
SOUTHWEST LOWER MICHIGAN

CITY           SKY/WX    TMP DP  RH WIND       PRES   REMARKS
BATTLE CREEK   CLOUDY    18   4  54 SE12      30.21F WCI   5
BENTON HARBOR  LGT SNOW  18   8  65 E13G24    30.17F WCI   5
COLDWATER*     CLOUDY    18   6  58 SE9       30.21F WCI   7
HILLSDALE*     CLOUDY    16   5  63 SE13      30.20F WCI   2
HOLLAND        CLOUDY    17   4  56 SE15      30.20F WCI   2
GRAND RAPIDS   CLOUDY    20   5  52 SE14      30.21F WCI   7
KALAMAZOO      CLOUDY    18   4  54 SE8G18    30.20F WCI   8
STURGIS*       LGT SNOW  16  10  77 SE13      30.19F WCI   2
THREE RIVERS*  LGT SNOW  17  10  72 SE12      30.21F WCI   4

$$
OHZ001>008-015>018-024>025-142300-
NORTHWEST OHIO

CITY           SKY/WX    TMP DP  RH WIND       PRES   REMARKS
DEFIANCE       CLOUDY    21   5  50 SE9       30.25F WCI  11
FINDLAY        CLOUDY    20   5  52 SE13      30.25F WCI   7
TOLEDO EXPRESS CLOUDY    18   5  57 E12G17    30.27F WCI   5
TOLEDO METCALF CLOUDY    19   4  51 SE13      30.31S WCI   6
LIMA           LGT SNOW  17   7  64 SE15      30.21F WCI   2

$$
AND FOR LAKE MICHIGAN COASTAL AND OPEN LAKE BUOY OBSERVATIONS

STATION/POSITION TEMP    WIND        PRES    VSBY  WAVE
                 AIR SEA DIR/SP/G                  HT/PER
                 (F)     (DEG/KT/KT) (MB)    (MI)  (FT/S)
CALUMET HARBOR    17     110/ 13/ 19 1020.1F
MICHIGAN CITY     15      90/ 10/ 13   N/A
BURNS HARBOR      16     100/ 12/ 17 1021.3F
SAINT JOSEPH      18      40/  2/  8 1022.4F

$$
&&




USA.gov is the U.S. government's official web portal to all federal, state and local government web resources and services.